Theta_e
310 309 311 312 312 299 306 306 302 305 312 308 303 304 305 304 302 300 308 311 317 322 324 326 328 330 327 329 333 334 335 337 337 337 336 336 340 344 348 349 344 343 342 345 345 345 343 343 344 346 351 351 353 355 355 358 360 359 359 362 360 361 362
311 312 312 312 312 311 307 301 304 310 312 310 305 297 302 300 296 300 306 307 310 312 308 323 325 324 326 327 332 334 337 335 335 336 336 335 337 343 348 350 353 345 344 344 345 343 345 345 344 347 354 350 355 353 355 355 358 358 358 359 358 359 361
310 313 311 308 310 312 306 306 312 303 298 297 303 301 294 295 295 298 303 305 311 311 313 320 320 322 325 328 328 331 333 334 333 334 336 340 341 343 347 348 348 350 343 343 346 345 348 350 351 349 350 350 350 352 354 354 354 356 356 357 358 359 359
310 309 308 300 303 308 310 312 308 311 306 301 299 301 302 301 296 297 300 305 305 314 317 319 322 323 324 327 328 330 331 334 334 336 338 339 339 341 346 347 349 350 354 346 346 347 349 351 352 351 352 349 348 350 351 352 356 357 356 354 356 355 357
308 301 305 303 304 301 303 304 304 306 305 308 306 305 301 299 298 299 298 299 308 320 330 323 324 325 329 330 329 332 335 336 338 337 338 340 340 341 345 347 349 348 348 349 352 348 353 353 353 353 351 353 354 355 353 355 356 356 354 351 353 355 356
302 304 309 308 308 307 305 304 303 305 303 300 297 296 305 302 298 294 297 299 311 323 333 329 331 331 329 333 332 332 333 338 338 339 336 340 340 341 344 346 346 346 347 348 350 356 352 352 351 352 354 361 361 362 354 355 358 357 354 349 354 356 356
302 306 308 312 311 310 308 307 304 307 306 305 301 294 299 303 302 304 302 299 310 325 329 332 331 330 331 331 332 332 333 333 335 339 340 340 344 343 343 345 346 347 347 347 348 351 352 351 351 355 359 359 359 358 360 361 358 357 353 350 356 356 355
307 309 311 311 311 309 306 307 308 306 303 305 304 302 304 301 303 299 299 297 311 323 328 328 333 333 334 332 333 334 334 337 341 340 340 344 344 345 344 347 349 347 347 349 349 350 350 353 356 360 361 361 361 363 363 361 360 358 353 356 355 358 358
300 303 306 306 309 308 305 305 307 307 307 306 307 307 308 301 302 302 300 295 310 325 329 330 329 330 330 333 335 335 334 338 340 340 343 345 346 347 348 348 349 351 352 353 354 356 358 356 357 358 356 358 357 356 357 358 361 361 362 360 361 359 357
289 290 292 295 298 301 305 307 307 308 306 305 303 299 303 296 304 305 301 306 316 323 326 325 328 327 328 332 334 335 336 338 338 341 342 344 345 343 342 342 343 344 351 354 352 354 357 354 351 353 354 354 355 353 355 358 356 360 361 366 364 354 360
297 298 303 306 308 305 301 304 306 305 307 308 308 306 305 300 304 304 310 309 314 318 323 325 325 330 327 327 328 330 331 336 338 340 342 342 342 342 343 343 344 346 345 344 346 350 357 356 357 357 358 356 354 352 353 356 358 357 355 362 365 361 363
303 304 304 306 306 303 304 303 303 306 306 308 306 303 301 311 304 297 311 315 311 313 318 321 325 326 328 326 328 329 329 332 333 334 338 340 341 343 344 343 343 343 345 345 346 348 354 355 358 360 361 360 355 355 354 356 354 353 358 363 365 364 363
303 305 305 306 305 305 305 305 305 305 307 307 305 305 307 307 303 301 308 313 312 313 317 320 324 327 328 330 331 332 333 334 333 332 333 338 338 338 340 341 341 342 343 344 344 345 349 352 352 353 355 356 358 358 358 356 356 358 364 367 366 365 366
303 304 305 306 304 304 305 305 306 306 306 306 307 307 308 307 307 309 309 312 316 321 319 322 326 329 331 333 335 335 334 333 333 333 331 332 335 336 337 339 339 340 341 344 343 344 347 347 346 345 347 349 350 352 353 353 355 358 362 364 363 364 365
300 304 305 305 305 304 302 304 305 305 306 306 307 308 310 311 310 309 311 311 315 322 328 327 328 332 333 333 331 333 334 334 332 332 331 332 334 335 333 334 337 340 341 342 344 345 346 344 343 342 345 348 350 350 351 352 353 355 355 357 357 358 360
298 302 303 304 304 304 303 303 304 305 305 303 305 307 313 311 309 310 310 309 314 321 327 327 330 330 331 329 330 333 332 334 332 330 330 331 332 334 334 335 336 336 338 338 340 342 344 346 348 347 347 348 347 349 351 351 354 356 357 356 354 354 355
296 301 303 302 302 301 298 300 305 306 308 308 309 312 313 312 313 310 307 312 315 323 325 325 326 327 325 324 325 328 332 332 335 332 332 333 337 335 335 334 335 337 336 335 336 337 338 341 341 345 350 350 350 353 352 353 354 355 355 354 353 353 355
298 301 301 302 298 291 295 306 313 310 307 308 306 309 311 312 315 313 318 318 323 324 324 323 325 324 324 327 329 332 331 331 330 332 333 335 335 335 334 335 335 334 335 336 338 338 339 342 343 344 345 346 346 347 349 351 352 353 353 353 353 352 353
297 301 301 297 292 293 305 311 311 313 312 312 309 313 312 315 315 316 316 318 321 323 326 326 326 327 328 327 326 328 332 333 333 332 331 333 332 332 332 332 333 335 337 339 338 337 339 340 342 341 342 343 343 345 346 345 346 344 343 344 346 348 348
302 299 298 290 292 304 307 310 310 311 311 309 309 308 312 315 315 316 315 318 322 323 325 327 327 327 326 326 327 327 330 333 334 331 330 332 333 332 332 332 332 332 335 336 336 337 341 341 341 341 340 342 342 342 341 340 341 340 342 343 343 343 342
295 299 297 297 304 302 305 306 307 308 306 307 306 302 309 316 315 316 316 317 322 323 323 323 325 326 327 324 324 326 327 329 334 333 330 330 330 331 332 332 332 334 335 333 333 334 336 336 337 337 338 339 339 338 337 338 339 339 339 339 341 343 343
300 297 294 295 295 293 301 310 312 313 312 312 312 308 310 313 315 318 318 319 320 323 322 322 322 323 319 316 317 322 324 327 326 331 330 329 328 326 325 324 323 331 335 334 334 334 334 333 335 337 338 338 337 335 334 334 333 333 335 336 338 339 342
300 298 293 293 291 298 305 309 311 312 313 313 313 306 302 310 315 315 318 319 322 322 322 321 322 316 311 312 314 320 322 321 322 321 323 324 325 325 323 321 319 319 321 323 325 328 328 328 332 336 337 339 335 333 334 332 333 332 334 335 338 338 337
298 297 293 292 301 300 308 312 312 312 314 313 308 295 297 309 315 316 317 319 320 322 323 323 321 316 310 311 314 319 321 319 322 322 319 319 319 319 320 320 319 320 323 321 321 321 322 325 327 328 328 328 331 330 329 330 330 330 332 334 335 336 337
297 297 295 299 302 308 311 311 312 314 314 308 297 292 302 315 317 317 319 321 321 323 321 321 318 320 321 321 322 322 321 319 318 318 319 318 319 318 319 319 324 320 320 320 319 320 323 325 326 328 327 325 325 328 328 327 328 329 332 335 336 337 338
295 297 296 297 302 308 311 314 312 316 309 298 297 308 317 318 317 318 322 321 323 323 320 322 322 322 324 324 325 323 321 320 318 318 318 319 320 319 319 321 320 318 318 319 319 319 321 323 325 325 326 325 326 325 324 324 326 328 330 333 335 334 337
300 300 295 294 289 305 312 313 312 314 306 306 313 315 317 319 318 318 320 323 324 325 321 322 322 322 322 322 322 321 319 318 319 320 321 321 320 319 320 320 319 318 317 318 318 319 320 322 323 324 325 325 324 324 322 325 326 328 327 327 329 330 334
296 295 294 293 303 310 314 313 305 310 313 316 317 317 314 318 321 320 322 322 324 325 324 321 322 322 322 322 321 321 319 318 318 318 318 319 319 318 320 322 322 322 319 319 319 320 321 321 321 321 322 323 324 324 325 327 328 329 330 330 330 328 329
301 299 302 308 312 312 314 315 314 315 317 319 318 319 317 316 319 323 322 321 323 325 325 323 322 321 323 322 321 320 318 317 316 316 316 316 316 316 316 318 321 321 319 319 319 320 322 322 323 324 322 322 323 322 324 329 329 329 329 329 328 326 326
310 311 311 312 312 313 313 315 316 315 316 317 318 317 317 318 320 322 321 324 324 325 327 323 323 322 323 323 323 320 319 317 316 317 316 315 314 314 316 317 317 318 319 319 318 317 320 322 323 325 323 323 323 325 326 326 326 329 329 328 328 329 327
303 298 312 311 310 313 315 314 317 318 318 317 317 318 318 319 319 321 324 325 325 326 326 325 323 323 324 322 322 324 318 317 317 316 315 314 314 315 316 319 320 318 318 318 318 318 319 323 324 324 322 321 324 326 325 322 322 326 326 328 329 328 328
304 304 311 311 312 313 314 315 316 315 317 318 318 319 320 321 322 322 325 326 326 326 326 326 323 322 322 321 320 321 321 318 318 317 317 317 317 319 321 322 322 321 320 319 319 317 318 320 322 322 322 322 324 324 325 325 324 325 326 324 324 324 323
307 310 311 315 313 313 313 314 315 316 316 317 317 318 319 320 321 322 323 323 324 326 325 325 324 322 321 323 322 321 321 322 321 319 319 319 320 321 321 321 321 320 320 319 317 317 317 316 318 320 320 320 322 324 324 324 326 327 326 327 326 325 325
302 303 308 312 305 307 311 314 316 317 318 318 317 318 317 318 319 320 321 322 325 326 326 326 324 322 322 322 322 322 322 322 322 321 320 320 321 321 323 323 323 323 323 322 320 319 317 314 314 315 317 319 319 320 322 325 326 325 324 324 323 322 321
302 309 312 315 315 313 315 315 316 319 318 319 318 318 318 318 319 319 319 320 321 323 325 326 324 323 323 322 323 322 322 323 324 324 323 323 323 324 323 322 323 323 322 322 321 320 319 318 316 316 316 316 317 319 320 321 320 323 323 324 323 321 321
312 314 314 315 313 310 315 318 318 317 318 319 318 319 319 319 318 319 319 319 318 319 322 325 326 326 325 325 323 321 323 324 324 324 325 324 327 327 326 323 321 320 320 320 320 319 318 318 317 317 316 315 317 316 318 318 320 320 318 319 322 322 321
313 317 317 316 315 316 318 318 319 320 319 318 318 318 318 318 319 319 319 319 320 319 319 322 326 325 325 325 324 323 322 322 325 325 325 325 323 322 324 323 321 320 320 321 321 319 319 318 319 318 317 317 317 315 318 318 317 317 318 318 315 315 317
Wind_Speed
14 12 13 10 6 7 10 12 14 12 9 11 9 9 12 13 7 8 3 10 7 8 7 9 7 7 9 10 11 13 16 16 16 14 15 16 14 10 7 2 7 14 15 13 13 14 14 14 13 12 10 11 11 13 14 13 13 12 12 11 11 9 9
14 15 12 13 11 12 7 10 10 11 13 12 8 9 5 8 7 6 9 10 9 9 5 9 12 10 9 10 12 11 8 15 16 15 13 14 14 12 7 4 4 10 13 14 13 15 15 13 15 13 10 12 11 13 14 15 14 13 13 13 12 11 10
7 3 3 10 15 16 12 9 5 11 10 12 8 7 9 9 7 8 8 3 10 6 6 10 11 11 10 11 10 13 10 10 13 14 13 10 12 11 8 7 2 5 12 12 10 13 13 11 11 11 12 12 12 13 15 15 15 15 14 12 12 10 11
7 10 8 10 10 14 17 12 12 9 7 8 9 8 8 6 8 7 5 9 5 2 7 9 10 10 12 11 10 10 12 9 12 12 13 14 12 10 8 7 6 2 3 9 12 12 11 12 10 11 12 13 15 13 14 14 12 11 13 13 11 11 12
4 8 8 11 9 11 12 11 10 9 9 4 5 7 10 8 6 6 8 2 2 0 3 6 11 7 8 11 9 7 7 8 7 11 12 8 8 10 12 9 6 6 3 1 5 10 9 10 10 10 10 10 9 9 10 10 12 11 12 12 13 10 10
7 6 6 11 13 11 12 10 9 9 5 7 8 8 8 10 8 4 7 4 2 3 2 3 9 11 10 6 10 8 8 7 5 5 11 12 11 14 13 12 11 8 4 4 3 1 9 9 10 10 8 6 5 4 10 9 10 10 10 11 9 8 8
10 14 22 13 14 14 11 10 10 9 8 9 9 7 9 7 9 10 10 4 5 2 5 3 5 12 10 10 9 8 6 3 5 6 5 9 11 12 15 14 12 9 8 6 5 5 5 9 10 8 7 6 6 5 4 4 7 9 10 9 9 9 8
10 10 15 16 14 16 14 14 14 12 13 12 9 7 7 8 6 10 6 7 5 6 6 10 4 10 9 9 11 8 5 2 5 9 9 9 8 9 9 8 9 9 9 7 7 8 9 7 7 7 7 6 6 4 2 3 4 7 8 6 7 7 7
4 6 8 11 12 9 8 8 9 12 11 14 12 11 5 11 12 9 6 2 3 3 4 2 4 10 8 5 3 6 4 3 3 7 9 8 9 8 6 4 4 5 4 5 2 3 4 7 8 6 7 6 7 4 3 2 1 1 4 6 5 6 7
5 6 4 7 5 7 5 9 11 13 16 17 13 11 7 6 8 12 6 4 3 3 8 3 3 10 10 2 2 5 3 3 3 5 8 8 9 9 10 7 9 10 4 7 7 6 5 8 8 6 5 5 5 3 4 4 1 1 4 3 4 8 5
3 5 5 11 13 9 9 12 14 9 5 9 12 5 3 4 9 2 11 5 7 4 4 7 5 4 15 10 2 2 3 5 4 2 5 6 7 11 12 10 7 6 8 10 10 6 4 7 7 7 7 8 7 5 4 3 3 2 7 8 5 6 4
10 6 7 10 10 13 12 12 14 14 11 9 10 6 7 5 5 3 14 13 6 3 4 5 4 4 5 13 9 1 3 3 4 7 5 7 6 8 7 8 8 7 9 9 5 4 7 7 7 6 5 7 10 8 7 5 7 9 9 9 7 6 6
7 10 10 4 7 10 10 10 7 8 9 9 9 8 10 7 6 8 7 7 9 4 5 3 5 3 4 9 9 12 6 3 8 4 1 4 8 6 9 11 8 9 10 8 5 3 5 6 6 6 5 4 4 3 4 6 8 8 5 5 5 5 5
10 9 9 7 7 9 9 7 7 4 8 7 8 10 10 10 11 11 9 7 9 6 5 5 4 4 6 8 10 7 10 13 10 7 4 2 3 7 7 7 9 7 6 6 7 5 5 6 6 7 6 3 2 1 1 2 2 1 2 4 4 4 5
8 9 10 10 8 9 9 7 10 11 9 7 6 7 7 12 11 13 9 7 8 5 4 3 5 5 6 4 6 6 4 9 14 13 6 1 3 5 5 3 7 7 4 3 2 5 6 8 7 7 4 2 3 3 3 3 2 1 2 2 1 4 5
7 8 9 9 7 5 7 8 10 11 10 9 5 5 8 10 12 10 10 8 5 5 3 3 1 3 1 5 5 7 6 7 11 12 11 7 7 9 9 4 2 4 4 4 3 4 2 3 6 8 8 8 8 7 5 5 3 3 2 2 2 3 4
6 7 8 8 8 7 9 7 6 13 15 10 1 10 13 12 15 10 7 4 4 5 3 1 0 9 13 13 9 7 8 4 5 11 9 8 6 12 11 10 8 7 7 6 6 6 5 4 7 6 1 5 6 6 7 7 5 6 5 4 3 4 4
5 6 6 3 4 8 4 5 11 9 9 11 7 7 7 12 13 4 3 7 7 6 7 6 6 8 7 7 4 7 2 4 5 8 8 8 9 12 11 11 10 9 8 8 8 7 6 7 8 6 6 5 6 8 5 1 4 5 5 6 5 4 5
6 4 5 7 9 2 5 3 2 1 6 5 5 8 3 7 3 11 8 8 7 7 6 8 9 12 11 13 14 13 12 4 4 11 11 10 11 11 12 11 10 9 9 9 7 6 5 5 4 3 3 5 5 6 6 8 8 8 9 9 6 2 3
5 6 4 6 3 8 9 5 4 9 7 5 7 8 11 10 9 6 8 8 6 5 5 6 8 7 13 13 14 13 13 11 8 10 11 11 11 12 10 11 11 10 9 10 9 8 7 6 5 5 5 4 4 7 8 9 9 9 8 6 5 4 3
3 6 7 5 6 2 2 5 8 8 7 6 6 5 5 3 2 5 6 6 6 5 4 4 4 6 7 9 8 11 11 12 11 9 11 11 11 12 12 12 12 11 11 11 11 8 7 7 7 8 9 8 8 8 9 8 8 7 7 6 6 5 4
5 2 6 7 5 4 6 8 3 6 7 5 3 4 3 9 12 4 4 6 6 3 2 2 4 5 2 3 6 11 12 10 11 9 9 11 12 13 14 15 15 11 10 12 10 8 7 7 7 7 6 6 7 9 9 9 9 8 7 7 7 6 5
5 2 4 6 6 2 2 5 10 8 9 8 5 5 1 7 11 11 7 6 5 4 3 1 3 4 5 4 4 6 10 9 10 13 14 14 13 12 13 14 14 16 16 15 14 10 11 10 7 7 5 2 7 8 8 9 10 8 7 7 7 7 7
5 6 6 3 3 2 4 7 6 8 11 10 6 7 4 10 13 11 12 11 13 6 3 4 6 3 4 5 4 4 7 10 10 10 13 13 13 13 11 12 12 12 12 14 16 17 16 14 12 12 11 10 9 9 9 9 10 10 8 8 8 8 7
6 8 1 9 1 1 6 7 9 10 10 6 6 2 5 8 8 10 11 12 12 11 10 8 4 5 5 5 6 8 9 10 11 11 12 12 12 13 12 11 12 13 13 14 15 15 13 11 11 12 12 12 12 10 9 9 9 9 8 6 6 5 4
6 4 3 4 5 4 6 5 6 11 9 3 4 0 4 5 7 8 11 13 11 11 10 5 6 6 7 6 6 8 9 10 9 10 11 12 13 12 12 14 13 12 12 14 15 15 14 13 12 10 10 10 9 9 10 10 10 8 8 7 6 6 5
6 8 2 4 3 4 9 9 1 11 5 5 1 2 2 6 7 8 10 10 9 9 11 9 8 10 10 10 8 7 9 11 11 11 11 11 11 12 13 12 13 12 12 13 14 13 12 12 11 11 11 11 10 9 9 10 8 7 7 7 6 5 5
3 2 4 2 1 2 5 8 6 5 6 2 3 4 5 5 7 7 8 7 6 6 10 10 8 8 10 10 10 8 8 10 10 10 10 10 10 11 11 12 12 13 12 12 12 13 12 11 10 10 10 10 10 10 9 8 9 8 6 4 4 3 3
5 5 4 3 4 4 6 6 7 5 5 5 6 6 7 7 7 7 7 4 2 3 7 9 10 9 7 10 9 9 9 10 9 9 9 9 9 9 9 9 9 9 10 10 10 11 10 10 9 8 7 9 11 12 10 9 9 8 7 6 4 5 4
5 8 6 4 5 6 6 5 5 6 6 8 7 9 7 8 7 7 7 3 3 2 3 6 7 8 9 9 7 7 9 9 9 9 9 9 9 9 8 8 8 8 7 7 8 8 9 9 8 7 8 10 11 8 8 9 9 8 6 5 6 4 3
3 1 7 3 5 4 5 6 4 6 7 7 7 7 7 7 8 8 6 5 2 1 2 5 8 9 9 8 4 2 6 9 8 8 8 8 8 7 7 7 6 6 6 6 7 6 7 8 9 9 10 9 8 7 8 8 8 7 9 6 4 5 6
1 3 0 4 4 6 6 4 3 6 6 7 8 6 6 7 7 7 8 5 6 3 4 4 6 9 10 10 8 6 7 8 8 8 7 8 7 6 6 5 5 5 5 5 6 6 5 5 6 7 8 8 9 8 7 8 8 7 6 7 7 5 6
8 6 3 4 2 5 5 6 5 4 5 5 5 6 7 7 7 7 7 8 3 3 4 3 4 7 8 8 9 10 7 7 8 8 7 8 8 8 7 6 5 4 4 5 5 5 5 3 4 6 7 7 7 7 6 6 5 6 6 5 4 5 3
5 2 2 1 3 3 2 1 3 2 4 3 3 4 5 6 6 6 7 8 7 4 3 4 3 4 5 7 7 7 6 6 7 8 8 8 8 8 8 7 7 6 6 6 5 5 5 4 4 4 5 5 5 5 5 5 4 4 7 6 1 5 7
2 3 1 1 1 2 2 2 2 2 1 3 3 4 5 6 6 6 6 6 7 6 4 3 6 5 5 6 7 7 6 6 6 6 7 7 6 6 6 6 6 6 6 7 6 6 6 6 6 6 5 3 3 4 6 6 7 8 7 8 6 4 4
5 8 9 5 3 2 5 3 2 2 2 2 4 4 4 4 5 5 5 5 4 3 2 3 5 6 6 5 6 7 4 3 7 6 5 5 4 5 4 4 5 5 4 4 4 4 4 6 6 6 6 5 4 4 4 4 6 6 7 6 5 5 4
5 3 4 0 2 2 3 3 3 4 3 3 4 3 4 5 5 5 3 3 4 5 2 2 7 5 4 5 4 5 10 9 7 6 6 5 5 6 5 6 6 5 3 3 4 3 2 3 4 5 6 6 5 5 4 5 4 4 4 4 6 6 5
Wind_Direction
161 211 239 242 283 242 153 184 210 230 268 262 265 257 267 288 276 268 253 114 115 110 132 135 150 152 148 156 154 169 174 177 178 188 192 198 200 210 201 257 208 180 184 179 181 172 179 185 185 184 164 163 153 154 164 169 169 174 173 172 174 170 174
180 192 216 246 235 264 293 211 204 210 232 269 259 267 267 251 261 272 234 150 160 152 144 168 163 166 171 166 164 160 156 179 180 184 191 194 189 200 193 193 318 190 176 181 182 178 182 185 183 181 159 164 150 159 169 171 173 175 175 177 174 176 174
179 128 247 229 247 248 249 264 34 214 182 213 245 293 258 251 245 243 208 173 136 207 135 170 174 173 174 169 164 157 166 187 185 183 188 193 197 195 177 201 196 243 171 180 185 182 177 181 181 172 165 164 165 165 174 177 176 177 178 179 176 175 178
193 173 210 236 203 231 253 270 275 273 255 211 217 212 277 277 274 279 219 212 99 41 134 176 167 176 173 163 163 159 177 192 192 183 184 187 195 193 177 186 188 244 175 186 183 185 177 175 167 171 170 174 175 176 177 178 172 179 177 184 174 179 182
243 211 183 240 206 200 211 232 248 235 220 190 222 198 219 239 262 271 297 136 85 328 333 174 169 184 121 120 159 187 190 184 198 180 186 176 187 190 179 178 174 191 187 285 185 185 176 161 170 163 172 178 173 167 174 178 163 178 185 182 174 184 184
267 238 170 234 249 215 213 218 215 263 197 231 221 234 195 227 246 272 270 89 53 352 350 84 103 77 82 123 162 192 202 195 206 199 196 183 187 195 190 175 181 183 165 176 273 243 158 153 172 161 159 113 82 120 182 171 166 176 188 188 167 178 185
283 339 321 300 266 257 230 212 232 228 254 214 219 240 210 192 232 257 267 265 102 50 322 334 101 115 142 154 155 179 214 165 207 199 210 188 185 189 190 184 177 171 174 175 197 236 174 167 165 160 141 124 135 118 137 140 173 173 189 193 164 172 184
301 287 287 287 265 242 233 214 213 210 241 261 253 230 265 283 222 215 224 259 108 130 95 309 27 90 147 169 173 153 192 179 233 176 188 196 170 188 175 195 169 170 170 183 196 205 183 181 129 118 103 109 109 110 121 150 184 178 182 200 172 168 176
282 273 259 263 273 268 229 230 238 240 237 259 268 272 264 248 243 283 293 310 92 56 37 312 60 137 169 168 128 110 128 223 176 170 163 150 152 134 115 117 171 127 124 91 116 159 135 108 107 121 124 128 129 148 151 146 178 216 188 192 181 173 183
310 301 287 301 316 313 277 261 243 216 227 214 224 235 227 246 292 276 294 127 131 165 159 156 185 121 146 77 3 53 16 341 111 154 159 150 137 119 120 121 117 122 125 81 51 32 86 104 125 132 126 130 129 144 170 161 131 106 330 221 159 173 181
315 223 255 264 263 260 257 222 247 277 264 352 326 301 331 331 346 293 56 98 128 121 115 117 120 205 123 144 226 193 83 17 18 101 140 137 139 146 150 146 134 110 91 111 121 125 116 122 125 139 145 143 151 170 176 176 128 195 201 238 174 182 156
242 253 239 259 279 283 288 326 336 350 343 324 308 295 232 80 314 190 77 69 84 117 151 125 108 81 98 135 172 177 145 137 30 34 28 103 138 135 132 139 133 127 123 144 139 127 123 115 116 109 108 128 154 173 171 179 166 210 206 208 181 177 171
245 247 266 255 260 262 280 300 310 326 340 315 277 283 287 294 282 288 2 74 93 67 76 52 75 72 60 96 129 148 199 178 120 124 212 150 138 156 158 157 145 141 152 161 161 156 112 106 93 87 82 76 70 92 138 171 189 199 175 167 173 183 184
281 265 254 239 232 271 277 275 266 315 287 315 319 308 298 292 288 270 295 18 75 63 82 73 54 30 78 101 133 156 159 152 138 98 63 291 168 168 160 153 161 148 168 171 175 166 129 92 70 31 16 17 9 10 350 14 10 53 160 153 163 189 190
279 259 255 250 221 215 265 308 325 310 302 308 313 298 339 0 306 302 306 267 90 22 48 72 53 61 104 81 67 114 144 105 127 133 139 51 76 111 99 136 159 154 135 94 146 149 150 146 149 142 206 258 257 261 264 272 269 281 353 19 263 203 216
267 259 258 242 241 262 237 249 249 265 268 257 248 31 8 346 334 325 317 288 100 256 16 360 350 121 90 74 58 50 39 88 122 131 140 166 139 116 120 147 158 160 145 129 84 100 102 130 156 168 181 191 204 208 221 228 230 251 227 235 257 274 256
288 291 259 251 230 258 259 251 15 18 343 315 183 79 50 15 320 309 306 51 18 16 324 230 352 54 38 28 13 3 6 3 101 120 141 141 102 109 118 96 81 82 75 74 87 58 28 53 49 23 312 211 217 205 199 195 202 210 219 215 220 249 264
265 278 285 307 249 237 236 2 325 36 15 348 345 35 52 31 351 358 47 351 357 10 9 349 37 73 74 79 342 29 60 338 9 85 83 83 91 78 75 82 83 83 77 64 63 70 59 40 46 22 26 36 62 60 61 91 209 213 216 211 206 217 230
271 276 226 236 237 190 3 91 338 336 57 8 355 93 110 88 16 356 28 13 360 4 13 49 74 85 92 68 39 31 20 40 81 76 75 74 80 78 74 74 75 82 87 87 97 86 66 64 75 75 4 36 49 68 58 58 60 63 54 44 37 43 44
294 258 237 240 245 126 214 139 21 24 296 332 306 100 24 28 19 5 16 357 12 5 21 28 23 54 78 51 43 21 20 26 42 71 70 71 75 88 94 91 88 86 92 96 94 109 125 136 120 121 119 111 74 70 66 58 58 66 70 69 90 90 86
225 286 258 256 81 242 168 72 25 356 22 332 11 303 88 11 292 12 345 355 8 45 74 64 42 329 354 75 54 21 23 32 40 69 83 81 84 82 80 89 106 107 94 86 82 73 66 79 87 69 57 57 71 72 69 66 65 56 65 66 55 89 100
327 300 309 263 226 236 41 5 338 342 4 326 265 280 146 355 25 34 11 356 349 62 70 57 110 104 223 36 35 11 16 40 48 66 90 83 71 58 56 48 44 61 103 113 103 88 88 92 86 90 101 113 102 85 81 74 64 54 40 45 44 34 48
212 236 299 307 286 72 240 328 316 332 330 342 340 278 206 7 359 354 2 336 40 32 49 72 31 75 113 95 47 2 8 49 63 64 70 73 73 68 62 55 54 47 41 43 57 78 87 67 79 110 121 71 90 91 89 79 75 68 47 39 35 45 36
242 177 204 230 54 42 358 320 308 325 349 336 324 261 58 347 345 347 355 23 17 350 27 2 49 60 137 127 140 83 44 41 42 64 72 66 69 69 64 73 76 63 54 57 53 42 33 34 39 40 44 45 55 65 66 72 72 67 57 42 33 32 42
276 308 323 101 138 188 316 330 315 347 343 317 281 334 351 332 341 342 359 25 52 46 25 11 40 24 39 99 100 112 103 89 82 76 80 78 70 70 72 69 63 62 60 60 57 49 40 42 54 44 37 40 37 37 56 61 65 67 62 61 60 30 18
294 241 248 107 85 9 311 332 354 360 298 295 12 117 264 315 359 5 35 45 48 66 77 93 90 100 105 124 126 102 88 88 83 72 72 70 62 63 77 75 64 66 64 60 58 54 48 41 42 53 54 49 47 37 39 50 54 58 60 46 49 47 12
345 341 291 137 119 63 348 321 194 24 5 67 92 297 11 18 17 22 48 53 53 64 89 84 109 126 135 138 131 113 113 104 89 76 72 68 63 56 50 59 72 74 68 60 61 61 53 46 42 43 50 52 50 44 35 29 45 51 60 55 41 37 23
18 22 51 55 50 42 27 18 51 63 63 79 70 323 45 18 45 35 58 58 62 97 118 122 130 136 134 137 134 136 122 111 100 93 86 82 75 62 57 56 51 55 57 55 60 60 59 57 44 39 41 45 45 43 41 38 29 31 37 69 96 56 42
10 41 72 89 102 70 56 49 80 70 63 62 38 43 49 19 36 56 85 77 90 106 123 123 130 127 141 142 148 141 139 127 126 118 106 101 96 87 80 73 65 58 53 51 51 49 45 56 63 70 60 48 42 38 25 27 26 11 21 19 38 65 40
81 51 15 108 80 70 84 88 34 43 42 39 39 35 28 30 42 49 67 90 101 149 162 131 126 129 142 147 135 144 140 136 131 127 123 118 112 111 103 89 78 68 64 58 53 52 42 46 53 51 61 61 48 35 31 12 16 357 354 16 10 27 86
271 120 299 77 83 100 79 51 74 64 33 45 30 42 31 30 23 44 63 93 108 107 191 108 116 137 147 132 142 137 147 143 147 141 133 131 130 120 111 107 105 97 91 86 74 60 53 26 25 38 43 53 61 37 28 31 13 1 356 355 24 1 20
40 121 148 51 66 38 28 49 83 59 45 29 31 34 48 33 34 55 97 74 80 116 97 103 132 133 137 144 150 180 170 157 154 148 146 144 139 134 130 134 117 113 103 98 101 93 68 43 41 39 40 41 41 42 37 22 9 357 356 354 360 21 31
90 105 16 351 179 95 48 50 6 33 25 37 31 31 40 39 45 48 71 104 118 109 104 121 135 140 153 146 160 165 163 150 151 150 158 160 154 144 151 147 148 124 117 102 100 100 87 63 43 46 40 29 15 28 40 55 12 342 331 336 337 345 2
122 211 115 94 176 161 304 287 78 76 76 31 32 21 41 54 53 45 49 74 90 54 109 151 143 155 146 156 167 166 159 164 144 150 159 166 162 168 162 169 159 152 137 130 125 119 119 115 93 74 57 44 24 18 12 15 38 21 340 312 337 42 12
85 115 83 262 160 127 242 140 171 339 73 115 75 58 35 38 50 49 43 46 97 127 199 212 146 172 175 171 162 155 169 164 171 164 175 170 171 179 173 169 153 147 145 141 143 138 134 135 131 129 118 99 69 45 15 18 20 18 3 347 337 66 62
130 153 163 209 247 206 177 135 130 116 14 18 108 77 67 44 32 39 52 45 39 85 90 100 103 151 159 173 177 166 147 211 169 166 167 179 149 102 89 145 136 136 138 136 139 134 141 143 135 134 130 128 128 105 86 44 32 33 19 359 350 5 24
112 109 130 214 134 130 144 182 117 92 68 19 52 35 40 31 38 25 43 34 4 13 53 78 116 165 185 167 220 196 164 189 179 167 169 171 155 152 139 132 148 135 123 125 123 138 152 139 144 133 131 123 111 98 80 69 59 48 27 25 25 15 4